Location: McNierney
(34.1937°N, 106.9061°W)
Time: 16:14:33
(UTC+00:00)

IRIDIUM 104 - Pass Details

Date: 11 December 2025
Orbit: 776 x 779 km, 86.4° (Epoch: 22 January)

Event Time Altitude Azimuth Distance (km) Brightness Sun altitude
Rises 12:47:43 0° 176° (S) 3,245 7.8 -15.3°
Reaches altitude 10° 12:50:03 10° 175° (S) 2,321 7.1 -14.9°
Maximum altitude 12:55:14 76° 90° (E) 806 4.5 -13.8°
Drops below altitude 10° 13:00:27 10° 5° (N) 2,337 6.7 -12.8°
Sets 13:02:49 0° 4° (N) 3,268 7.4 -12.4°
